THORAD AGENA D DEB, 5129

Orbit data source: Space-Track

THORAD AGENA D DEB, 5129 is space debris in SSO originally from a launch on Wed, 08 Apr 1970 UTC launched from the Air Force Western Test Range (AFWTR). Debris objects in space refer to the collection of defunct objects orbiting the Earth. Examples of debris include non-operational satellites, rocket bodies, and fragments generated from explosions, collisions, or faulty payload assembly.

Loading next visibility...
Identifier
5129, 1970-025JN
Orbit
SSO
Country
Flag of USUS
Related business
Manufacturer
Unknown
Mission
Spacecraft
Bus & Motor
Unknown
Mass
Unknown
Launch date (UTC)
1970-04-08 (56 years ago)
Launch vehicle
Unknown
Launch site
Air Force Western Test Range (AFWTR)
Object type
Payload
Rocket body
Debris
Shape & HBR
Unknown shape, 0.1 m
Radar Cross Section
Medium (>0.1 m² and <1 m²)

Expand to show TLE details & history
Last TLE update: 11 hours ago

TLE from 11 hours ago
0 THORAD AGENA D DEB
1 05129U 70025JN  26208.23529292  .00001150  00000-0  14930-2 0  9999
2 05129  99.3127 296.3548 0186527 335.3233  49.3343 13.57223344739074
Epoch: 2026-07-27T05:38Z
TLE epoch observation values (Epoch: 2026-07-27T05:38:49.308Z)
Latitude
25.96489°
Longitude
-97.82874°
Altitude
960.122 km
Speed
7.418 km/s
True Right ascension
19h 27m 11s
True Declination
25° 50' 01"
Sunlit
Object was in full shadow at epoch
Visualization orbit readout
Latitude
Unknown
Longitude
Unknown
Altitude
Unknown
Speed
Unknown
Apparent Right ascension
Unknown
Apparent Declination
Unknown
Sunlit
N/A
Visualization observer readout
Local Sidereal Time
05:55:40
Azimuth
Unknown
Elevation
Unknown
Doppler factor
Unknown
Orbital elements
Apogee altitude
1,181.497 km
Perigee altitude
904.645 km
Semi-major axis
7,421.208 km
Eccentricity
0.01865
Inclination
99.3127°
RAAN
296.3548°
Arg. of periapsis
335.3233°
True anomaly
50.98037°
Mean anomaly
49.3343°
Eccentric anomaly
50.15484°
Mean motion
3.39493 °/min
Orbital period
106.04 mins
BSTAR
0.001493
Loading maneuver chart data...
Computing Atmospheric mass density...

Documentation

Showing up to 5 results
|